| time (UTC) | temp F | wind direction | speed knots | gust knots | rain 1hr in | rain 24hr in | rain mn in | humidity % | barometer mb |
| 20260906040114 | 79 | 23 | 0.9 | 5.2 | 0.00 | 0.00 | 0.00 | 79 | 1014.6 |
| 20260906034536 | 80 | 48 | 0.0 | 3.5 | 0.00 | 0.00 | 0.00 | 78 | 1014.6 |
| 20260906034018 | 80 | 122 | 0.9 | 2.6 | 0.00 | 0.00 | 0.00 | 77 | 1014.6 |
| 20260906033519 | 80 | 10 | 0.9 | 2.6 | 0.00 | 0.00 | 0.00 | 76 | 1014.5 |
| 20260906033046 | 80 | 55 | 0.9 | 5.2 | 0.00 | 0.00 | 0.00 | 76 | 1014.5 |
| 20260906032520 | 81 | 37 | 0.9 | 5.2 | 0.00 | 0.00 | 0.00 | 75 | 1014.4 |
| 20260906032020 | 81 | 60 | 0.9 | 6.1 | 0.00 | 0.00 | 0.00 | 75 | 1014.4 |
| 20260906031537 | 81 | 359 | 0.9 | 6.1 | 0.00 | 0.00 | 0.00 | 75 | 1014.3 |
| 20260906031017 | 81 | 74 | 1.7 | 6.1 | 0.00 | 0.00 | 0.00 | 74 | 1014.3 |
| 20260906030034 | 82 | 72 | 0.9 | 4.3 | 0.00 | 0.00 | 0.00 | 74 | 1014.2 |
| 20260906025637 | 82 | 103 | 0.9 | 4.3 | 0.00 | 0.00 | 0.00 | 73 | 1014.1 |
| 20260906025024 | 82 | 125 | 0.9 | 4.3 | 0.00 | 0.00 | 0.00 | 73 | 1014.1 |
| 20260906024542 | 82 | 16 | 0.9 | 7.0 | 0.00 | 0.00 | 0.00 | 73 | 1014.1 |
| 20260906023044 | 83 | 46 | 1.7 | 9.6 | 0.00 | 0.00 | 0.00 | 74 | 1014.1 |
| 20260906021540 | 81 | 111 | 1.7 | 3.5 | 0.00 | 0.00 | 0.00 | 81 | 1014.0 |
| 20260906021017 | 81 | 80 | 0.0 | 0.9 | 0.00 | 0.00 | 0.00 | 81 | 1013.9 |
| 20260906020041 | 81 | 0 | 0.0 | 0.0 | 0.00 | 0.00 | 0.00 | 80 | 1013.5 |
| 20260906014539 | 82 | 0 | 0.0 | 0.0 | 0.00 | 0.00 | 0.00 | 79 | 1013.2 |
| 20260906013520 | 82 | 0 | 0.0 | 0.0 | 0.00 | 0.00 | 0.00 | 79 | 1013.0 |
| 20260906013040 | 83 | 0 | 0.0 | 0.0 | 0.00 | 0.00 | 0.00 | 78 | 1012.9 |
| 20260906011541 | 83 | 0 | 0.0 | 0.9 | 0.00 | 0.00 | 0.00 | 77 | 1012.9 |
| 20260906010518 | 84 | 15 | 0.0 | 0.9 | 0.00 | 0.00 | 0.00 | 76 | 1012.9 |
| 20260906010039 | 84 | 0 | 0.0 | 0.9 | 0.00 | 0.00 | 0.00 | 74 | 1012.8 |
| 20260906005518 | 85 | 0 | 0.0 | 0.9 | 0.00 | 0.00 | 0.00 | 74 | 1012.8 |
| 20260906005017 | 85 | 0 | 0.0 | 0.0 | 0.00 | 0.00 | 0.00 | 74 | 1012.7 |
| 20260906004536 | 85 | 0 | 0.0 | 0.9 | 0.00 | 0.00 | 0.00 | 73 | 1012.5 |
| 20260906003041 | 86 | 0 | 0.0 | 1.7 | 0.00 | 0.00 | 0.00 | 72 | 1012.6 |
| 20260906002019 | 87 | 0 | 0.0 | 0.9 | 0.00 | 0.00 | 0.00 | 71 | 1012.5 |
| 20260906001545 | 87 | 108 | 0.0 | 0.9 | 0.00 | 0.00 | 0.00 | 70 | 1012.4 |
| 20260906000036 | 88 | 0 | 0.0 | 0.9 | 0.00 | 0.00 | 0.00 | 68 | 1012.5 |
| 20260905234539 | 90 | 0 | 0.0 | 3.5 | 0.00 | 0.00 | 0.00 | 66 | 1012.4 |
| 20260905233036 | 90 | 344 | 0.0 | 2.6 | 0.00 | 0.00 | 0.00 | 64 | 1012.7 |
| 20260905232522 | 91 | 15 | 0.0 | 2.6 | 0.00 | 0.00 | 0.00 | 62 | 1012.6 |
| 20260905231552 | 91 | 68 | 0.9 | 3.5 | 0.00 | 0.00 | 0.00 | 61 | 1012.5 |
| 20260905231018 | 92 | 47 | 0.9 | 3.5 | 0.00 | 0.00 | 0.00 | 61 | 1012.3 |
| 20260905230517 | 92 | 80 | 0.0 | 1.7 | 0.00 | 0.00 | 0.00 | 61 | 1012.5 |
| 20260905230039 | 92 | 58 | 0.9 | 3.5 | 0.00 | 0.00 | 0.00 | 61 | 1012.5 |
| 20260905224607 | 93 | 87 | 1.7 | 5.2 | 0.00 | 0.00 | 0.00 | 59 | 1012.6 |
| 20260905224020 | 93 | 300 | 0.9 | 5.2 | 0.00 | 0.00 | 0.00 | 58 | 1012.6 |
| 20260905223518 | 93 | 243 | 0.9 | 3.5 | 0.00 | 0.00 | 0.00 | 59 | 1012.4 |
| 20260905223042 | 93 | 330 | 0.9 | 3.5 | 0.00 | 0.00 | 0.00 | 58 | 1012.4 |
| 20260905222517 | 94 | 203 | 0.9 | 2.6 | 0.00 | 0.00 | 0.00 | 58 | 1012.4 |
| 20260905222016 | 94 | 49 | 0.0 | 3.5 | 0.00 | 0.00 | 0.00 | 57 | 1012.3 |
| 20260905221019 | 95 | 65 | 1.7 | 4.3 | 0.00 | 0.00 | 0.00 | 55 | 1012.4 |
| 20260905220519 | 95 | 18 | 0.9 | 4.3 | 0.00 | 0.00 | 0.00 | 58 | 1012.3 |
| 20260905220038 | 94 | 86 | 0.9 | 4.3 | 0.00 | 0.00 | 0.00 | 57 | 1012.3 |
| 20260905215517 | 94 | 105 | 0.0 | 4.3 | 0.00 | 0.00 | 0.00 | 57 | 1012.5 |
| 20260905214547 | 94 | 27 | 1.7 | 5.2 | 0.00 | 0.00 | 0.00 | 58 | 1012.4 |
| 20260905213518 | 95 | 18 | 1.7 | 6.1 | 0.00 | 0.00 | 0.00 | 56 | 1012.4 |
| 20260905213036 | 94 | 51 | 2.6 | 6.1 | 0.00 | 0.00 | 0.00 | 57 | 1012.4 |
| 20260905212526 | 94 | 239 | 2.6 | 4.3 | 0.00 | 0.00 | 0.00 | 57 | 1012.4 |
| 20260905212018 | 95 | 25 | 1.7 | 4.3 | 0.00 | 0.00 | 0.00 | 57 | 1012.5 |
| 20260905211546 | 95 | 23 | 0.9 | 3.5 | 0.00 | 0.00 | 0.00 | 56 | 1012.3 |
| 20260905211018 | 95 | 93 | 0.9 | 3.5 | 0.00 | 0.00 | 0.00 | 55 | 1012.4 |
| 20260905210520 | 96 | 74 | 1.7 | 4.3 | 0.00 | 0.00 | 0.00 | 52 | 1012.5 |
| 20260905210048 | 97 | 75 | 0.9 | 4.3 | 0.00 | 0.00 | 0.00 | 51 | 1012.3 |
| 20260905205519 | 96 | 281 | 0.9 | 2.6 | 0.00 | 0.00 | 0.00 | 50 | 1012.6 |
| 20260905205019 | 96 | 46 | 0.9 | 2.6 | 0.00 | 0.00 | 0.00 | 52 | 1012.4 |
| 20260905204540 | 96 | 70 | 0.9 | 2.6 | 0.00 | 0.00 | 0.00 | 53 | 1012.5 |
| 20260905203039 | 96 | 56 | 0.9 | 7.8 | 0.00 | 0.00 | 0.00 | 50 | 1012.9 |
| 20260905202526 | 96 | 83 | 1.7 | 7.8 | 0.00 | 0.00 | 0.00 | 49 | 1012.9 |
| 20260905202020 | 96 | 32 | 1.7 | 3.5 | 0.00 | 0.00 | 0.00 | 49 | 1012.9 |
| 20260905201536 | 97 | 24 | 1.7 | 6.1 | 0.00 | 0.00 | 0.00 | 48 | 1013.0 |
| 20260905200041 | 97 | 81 | 1.7 | 5.2 | 0.00 | 0.00 | 0.00 | 48 | 1013.1 |
| 20260905194547 | 96 | 89 | 1.7 | 5.2 | 0.00 | 0.00 | 0.00 | 49 | 1013.0 |
| 20260905193040 | 96 | 65 | 1.7 | 5.2 | 0.00 | 0.00 | 0.00 | 49 | 1013.1 |
| 20260905191538 | 98 | 94 | 2.6 | 4.3 | 0.00 | 0.00 | 0.00 | 46 | 1013.3 |
| 20260905190043 | 98 | 53 | 0.9 | 6.1 | 0.00 | 0.00 | 0.00 | 48 | 1013.1 |
| 20260905184553 | 97 | 63 | 1.7 | 5.2 | 0.00 | 0.00 | 0.00 | 47 | 1013.3 |
| 20260905183040 | 97 | 75 | 1.7 | 4.3 | 0.00 | 0.00 | 0.00 | 48 | 1013.6 |
| 20260905181542 | 97 | 285 | 1.7 | 5.2 | 0.00 | 0.00 | 0.00 | 48 | 1013.7 |
| 20260905180047 | 96 | 256 | 1.7 | 3.5 | 0.00 | 0.00 | 0.00 | 49 | 1013.9 |
| 20260905175519 | 96 | 283 | 1.7 | 3.5 | 0.00 | 0.00 | 0.00 | 49 | 1013.9 |
| 20260905175020 | 96 | 97 | 0.9 | 2.6 | 0.00 | 0.00 | 0.00 | 51 | 1013.9 |
| 20260905174540 | 96 | 333 | 0.9 | 4.3 | 0.00 | 0.00 | 0.00 | 48 | 1014.0 |
| 20260905173101 | 96 | 39 | 0.9 | 3.5 | 0.00 | 0.00 | 0.00 | 52 | 1014.1 |
| 20260905171540 | 96 | 97 | 0.9 | 2.6 | 0.00 | 0.00 | 0.00 | 52 | 1014.2 |
| 20260905170035 | 95 | 359 | 0.9 | 2.6 | 0.00 | 0.00 | 0.00 | 54 | 1014.3 |
| 20260905165018 | 94 | 334 | 0.9 | 1.7 | 0.00 | 0.00 | 0.00 | 57 | 1014.3 |
| 20260905164541 | 94 | 80 | 0.9 | 2.6 | 0.00 | 0.00 | 0.00 | 57 | 1014.3 |
| 20260905163039 | 92 | 269 | 0.9 | 2.6 | 0.00 | 0.00 | 0.00 | 57 | 1014.4 |
| 20260905161601 | 92 | 46 | 0.9 | 2.6 | 0.00 | 0.00 | 0.00 | 60 | 1014.4 |
| 20260905161019 | 92 | 46 | 0.0 | 0.9 | 0.00 | 0.00 | 0.00 | 59 | 1014.4 |
| 20260905160517 | 92 | 0 | 0.0 | 0.9 | 0.00 | 0.00 | 0.00 | 58 | 1014.5 |
| 20260905160044 | 92 | 0 | 0.0 | 1.7 | 0.00 | 0.00 | 0.00 | 61 | 1014.5 |
| 20260905154538 | 91 | 314 | 0.9 | 1.7 | 0.00 | 0.00 | 0.00 | 59 | 1014.4 |
| 20260905153039 | 91 | 309 | 0.0 | 0.9 | 0.00 | 0.00 | 0.00 | 59 | 1014.4 |
| 20260905152522 | 91 | 108 | 0.9 | 1.7 | 0.00 | 0.00 | 0.00 | 63 | 1014.4 |
| 20260905152018 | 90 | 74 | 0.0 | 1.7 | 0.00 | 0.00 | 0.00 | 64 | 1014.4 |
| 20260905151542 | 90 | 91 | 0.0 | 1.7 | 0.00 | 0.00 | 0.00 | 63 | 1014.3 |
| 20260905150040 | 91 | 126 | 0.9 | 1.7 | 0.00 | 0.00 | 0.00 | 58 | 1014.3 |
| 20260905144542 | 90 | 289 | 0.0 | 0.9 | 0.00 | 0.00 | 0.00 | 61 | 1014.1 |
| 20260905143037 | 87 | 0 | 0.0 | 0.9 | 0.00 | 0.00 | 0.00 | 67 | 1014.0 |
| 20260905141541 | 85 | 0 | 0.0 | 0.9 | 0.00 | 0.00 | 0.00 | 72 | 1014.1 |
| 20260905140041 | 85 | 0 | 0.0 | 0.9 | 0.00 | 0.00 | 0.00 | 72 | 1014.0 |
| 20260905135520 | 85 | 0 | 0.0 | 0.9 | 0.00 | 0.00 | 0.00 | 72 | 1014.1 |
| 20260905135020 | 84 | 0 | 0.0 | 0.9 | 0.00 | 0.00 | 0.00 | 72 | 1014.2 |
| 20260905134538 | 83 | 0 | 0.0 | 0.0 | 0.00 | 0.00 | 0.00 | 74 | 1014.2 |
| 20260905133042 | 79 | 0 | 0.0 | 0.0 | 0.00 | 0.00 | 0.00 | 81 | 1014.2 |
| 20260905131540 | 76 | 0 | 0.0 | 0.0 | 0.00 | 0.00 | 0.00 | 85 | 1014.2 |
| 20260905130039 | 75 | 0 | 0.0 | 0.0 | 0.00 | 0.00 | 0.00 | 85 | 1014.0 |
| 20260905125524 | 75 | 0 | 0.0 | 0.0 | 0.00 | 0.00 | 0.00 | 86 | 1014.2 |
| 20260905125020 | 74 | 0 | 0.0 | 0.9 | 0.00 | 0.00 | 0.00 | 87 | 1014.1 |
| 20260905124538 | 74 | 0 | 0.0 | 0.9 | 0.00 | 0.00 | 0.00 | 87 | 1014.0 |
| 20260905123049 | 73 | 0 | 0.0 | 0.0 | 0.00 | 0.00 | 0.00 | 88 | 1013.9 |
| 20260905121547 | 73 | 0 | 0.0 | 0.0 | 0.00 | 0.00 | 0.00 | 88 | 1013.8 |
| 20260905120041 | 72 | 0 | 0.0 | 0.0 | 0.00 | 0.00 | 0.00 | 88 | 1013.6 |
| 20260905115522 | 72 | 0 | 0.0 | 0.0 | 0.00 | 0.00 | 0.00 | 88 | 1013.6 |
| 20260905114542 | 72 | 0 | 0.0 | 0.0 | 0.00 | 0.00 | 0.00 | 88 | 1013.4 |
| 20260905113039 | 73 | 0 | 0.0 | 0.0 | 0.00 | 0.00 | 0.00 | 88 | 1013.4 |
| 20260905111538 | 73 | 0 | 0.0 | 0.0 | 0.00 | 0.00 | 0.00 | 87 | 1013.2 |
| 20260905110523 | 73 | 0 | 0.0 | 0.0 | 0.00 | 0.00 | 0.00 | 87 | 1013.2 |
| 20260905110038 | 73 | 0 | 0.0 | 0.0 | 0.00 | 0.00 | 0.00 | 87 | 1013.1 |
| 20260905105518 | 73 | 0 | 0.0 | 0.0 | 0.00 | 0.00 | 0.00 | 87 | 1013.1 |
| 20260905104544 | 73 | 0 | 0.0 | 0.9 | 0.00 | 0.00 | 0.00 | 87 | 1013.1 |
| 20260905103040 | 73 | 99 | 0.0 | 0.9 | 0.00 | 0.00 | 0.00 | 87 | 1013.2 |
| 20260905102020 | 73 | 0 | 0.0 | 0.9 | 0.00 | 0.00 | 0.00 | 86 | 1013.1 |
| 20260905101549 | 73 | 0 | 0.0 | 0.9 | 0.00 | 0.00 | 0.00 | 86 | 1013.2 |
| 20260905101017 | 73 | 98 | 0.0 | 0.9 | 0.00 | 0.00 | 0.00 | 86 | 1013.2 |
| 20260905100517 | 74 | 0 | 0.0 | 0.9 | 0.00 | 0.00 | 0.00 | 86 | 1013.3 |
| 20260905100108 | 74 | 99 | 0.0 | 0.9 | 0.00 | 0.00 | 0.00 | 86 | 1013.2 |
| 20260905095521 | 74 | 0 | 0.0 | 0.9 | 0.00 | 0.00 | 0.00 | 86 | 1013.2 |
| 20260905094547 | 74 | 0 | 0.0 | 0.9 | 0.00 | 0.00 | 0.00 | 86 | 1013.4 |
| 20260905093039 | 74 | 0 | 0.0 | 0.9 | 0.00 | 0.00 | 0.00 | 86 | 1013.3 |
| 20260905092022 | 74 | 0 | 0.0 | 0.9 | 0.00 | 0.00 | 0.00 | 86 | 1013.2 |
| 20260905091545 | 74 | 0 | 0.0 | 0.0 | 0.00 | 0.00 | 0.00 | 86 | 1013.3 |
| 20260905091018 | 74 | 0 | 0.0 | 0.0 | 0.00 | 0.00 | 0.00 | 86 | 1013.4 |
| 20260905090519 | 74 | 0 | 0.0 | 0.9 | 0.00 | 0.00 | 0.00 | 86 | 1013.3 |
| 20260905090040 | 74 | 0 | 0.0 | 0.9 | 0.00 | 0.00 | 0.00 | 86 | 1013.3 |
| 20260905084543 | 74 | 0 | 0.0 | 0.9 | 0.00 | 0.00 | 0.00 | 86 | 1013.3 |
| 20260905083053 | 74 | 0 | 0.0 | 0.0 | 0.00 | 0.00 | 0.00 | 86 | 1013.5 |
| 20260905082519 | 74 | 0 | 0.0 | 0.0 | 0.00 | 0.00 | 0.00 | 86 | 1013.6 |
| 20260905082018 | 74 | 0 | 0.0 | 0.0 | 0.00 | 0.00 | 0.00 | 86 | 1013.6 |
| 20260905081541 | 74 | 0 | 0.0 | 0.0 | 0.00 | 0.00 | 0.00 | 86 | 1013.7 |
| 20260905080041 | 75 | 96 | 0.0 | 0.0 | 0.00 | 0.00 | 0.00 | 86 | 1013.6 |
| 20260905074536 | 75 | 0 | 0.0 | 0.9 | 0.00 | 0.00 | 0.00 | 86 | 1013.5 |
| 20260905074021 | 75 | 0 | 0.0 | 0.9 | 0.00 | 0.00 | 0.00 | 86 | 1013.6 |
| 20260905073518 | 75 | 0 | 0.0 | 0.0 | 0.00 | 0.00 | 0.00 | 86 | 1013.6 |
| 20260905073041 | 75 | 0 | 0.0 | 0.0 | 0.00 | 0.00 | 0.00 | 85 | 1013.5 |
| 20260905072520 | 75 | 0 | 0.0 | 0.0 | 0.00 | 0.00 | 0.00 | 85 | 1013.6 |
| 20260905072019 | 75 | 0 | 0.0 | 0.0 | 0.00 | 0.00 | 0.00 | 85 | 1013.7 |
| 20260905071535 | 75 | 0 | 0.0 | 0.0 | 0.00 | 0.00 | 0.00 | 85 | 1013.8 |
| 20260905070045 | 75 | 0 | 0.0 | 0.9 | 0.00 | 0.00 | 0.00 | 85 | 1013.7 |
| 20260905064540 | 76 | 0 | 0.0 | 0.0 | 0.00 | 0.00 | 0.00 | 84 | 1013.8 |
| 20260905063523 | 76 | 0 | 0.0 | 0.0 | 0.00 | 0.00 | 0.00 | 84 | 1013.8 |
| 20260905063039 | 76 | 0 | 0.0 | 0.0 | 0.00 | 0.00 | 0.00 | 83 | 1013.7 |
| 20260905062519 | 76 | 0 | 0.0 | 0.0 | 0.00 | 0.00 | 0.00 | 83 | 1013.7 |
| 20260905062020 | 76 | 0 | 0.0 | 0.0 | 0.00 | 0.00 | 0.00 | 83 | 1013.7 |
| 20260905061542 | 76 | 0 | 0.0 | 0.0 | 0.00 | 0.00 | 0.00 | 83 | 1013.8 |
| 20260905061021 | 77 | 0 | 0.0 | 0.0 | 0.00 | 0.00 | 0.00 | 83 | 1013.8 |
| 20260905060045 | 77 | 0 | 0.0 | 0.9 | 0.00 | 0.00 | 0.00 | 82 | 1013.6 |
| 20260905054605 | 77 | 96 | 0.0 | 0.9 | 0.00 | 0.00 | 0.00 | 82 | 1013.5 |
| 20260905053043 | 78 | 96 | 0.0 | 1.7 | 0.00 | 0.00 | 0.00 | 82 | 1013.5 |
| 20260905052021 | 78 | 111 | 0.0 | 1.7 | 0.00 | 0.00 | 0.00 | 81 | 1013.5 |
| 20260905051538 | 78 | 116 | 0.0 | 0.9 | 0.00 | 0.00 | 0.00 | 81 | 1013.4 |
| 20260905051020 | 78 | 107 | 0.0 | 0.9 | 0.00 | 0.00 | 0.00 | 80 | 1013.4 |
| 20260905050523 | 78 | 103 | 0.0 | 0.9 | 0.00 | 0.00 | 0.00 | 80 | 1013.5 |
| 20260905050039 | 78 | 103 | 0.0 | 0.9 | 0.00 | 0.00 | 0.00 | 80 | 1013.5 |
| 20260905045523 | 78 | 0 | 0.0 | 0.9 | 0.00 | 0.00 | 0.00 | 80 | 1013.4 |
| 20260905045021 | 78 | 0 | 0.0 | 0.9 | 0.00 | 0.00 | 0.00 | 81 | 1013.5 |
| 20260905044542 | 78 | 0 | 0.0 | 0.9 | 0.00 | 0.00 | 0.00 | 81 | 1013.5 |
| 20260905043040 | 78 | 0 | 0.0 | 0.9 | 0.00 | 0.00 | 0.00 | 82 | 1013.7 |
| 20260905042018 | 78 | 103 | 0.0 | 0.9 | 0.00 | 0.00 | 0.00 | 83 | 1013.6 |
| 20260905041539 | 78 | 105 | 0.0 | 0.9 | 0.00 | 0.00 | 0.00 | 83 | 1013.7 |
| 20260905041018 | 78 | 105 | 0.0 | 0.9 | 0.00 | 0.00 | 0.00 | 82 | 1013.7 |
| 20260905040521 | 78 | 0 | 0.0 | 0.0 | 0.00 | 0.00 | 0.00 | 82 | 1013.8 |